Location: Caltech
(34.1382°N, 118.1253°W)
Time: 22:45:53
(UTC-07:00)

MaSat-1 - Visible Passes

Search period start: 31 July 2014 00:00
Search period end: 10 August 2014 00:00
Orbit: 280 x 761 km, 69.5° (Epoch: 31 July)

Date Brightness Start Highest point End Pass type
(mag) Time Alt. Az. Time Alt. Az. Time Alt. Az.
31 Jul ? 05:10:21 10° NNE 05:11:59 11° NE 05:13:35 10° ENE visible
31 Jul ? 20:31:56 10° SSW 20:35:52 83° ESE 20:40:30 10° NNE visible
01 Aug ? 04:56:16 10° NNE 04:57:54 11° NE 04:59:30 10° ENE visible
01 Aug ? 20:17:44 10° SSW 20:21:41 83° ESE 20:26:21 10° NNE visible
02 Aug ? 04:42:05 10° NNE 04:43:42 11° NE 04:45:17 10° ENE visible
03 Aug ? 04:27:46 10° NNE 04:29:21 11° NE 04:30:54 10° ENE visible
04 Aug ? 04:13:21 10° NNE 04:14:52 11° NE 04:16:21 10° ENE visible
05 Aug ? 03:58:50 10° NNE 04:00:16 11° NE 04:01:40 10° ENE visible
05 Aug ? 05:33:10 10° NNW 05:38:21 90° WSW 05:43:01 10° SSE visible
06 Aug ? 03:44:12 10° NE 03:45:31 11° NE 03:46:48 10° ENE visible
06 Aug ? 05:18:26 10° NNW 05:23:37 90° ENE 05:28:15 10° SSE visible
06 Aug ? 20:46:20 10° WNW 20:46:56 10° NW 20:47:32 10° NW visible
07 Aug ? 03:29:29 10° NE 03:30:38 11° NE 03:31:46 10° ENE visible
07 Aug ? 05:03:35 10° NNW 05:08:44 89° ENE 05:13:20 10° SSE visible
07 Aug ? 20:31:05 10° WNW 20:31:57 10° NW 20:32:50 10° NW visible
08 Aug ? 03:14:42 10° NE 03:15:38 10° NE 03:16:33 10° ENE visible
08 Aug ? 04:48:36 10° NNW 04:53:44 88° ENE 04:58:18 10° SSE visible
08 Aug ? 20:15:45 10° WNW 20:16:51 11° NW 20:17:58 10° NW visible
09 Aug ? 02:59:53 10° NE 03:00:29 10° NE 03:01:05 10° NE visible
09 Aug ? 04:33:29 10° NNW 04:38:36 86° ENE 04:43:08 10° SSE visible
